Location: Montreal
(45.5087°N, 73.5540°W)
Time: 16:39:11
(UTC-04:00)

Envisat - Pass Details

Date: 08 February 2023
Orbit: 763 x 765 km, 98.2° (Epoch: 01 April)

Event Time Altitude Azimuth Distance (km) Brightness Sun altitude
Rises 04:16:04 0° 11° (NNE) 3,244 6.5 -30.2°
Reaches altitude 10° 04:18:23 10° 10° (N) 2,313 5.7 -29.8°
Enters shadow 04:20:55 30° 6° (N) 1,354 4.3 -29.4°
